Centralia, IL

5:05 PM CST on November 20, 2017 (GMT -0600)
Centralia Municipal

Weather History for KENL - August, 2014

Change the Weather History Date:

Tuesday, August 26, 2014

  Actual Average (KSLO) Record (KSLO)
Temperature  
Mean Temperature 86 °F -  
Max Temperature 103 °F 87 °F 99 °F (1983)
Min Temperature 68 °F 63 °F 49 °F (1958)
Cooling Degree Days 20    
Growing Degree Days 36 (Base 50)    
Moisture  
Dew Point 71 °F    
Average Humidity 73    
Maximum Humidity 94    
Minimum Humidity 40    
Precipitation  
Precipitation 0.00 in - - ()
Sea Level Pressure  
Sea Level Pressure 30.08 in    
Wind  
Wind Speed 1 mph (SSW)    
Max Wind Speed 5 mph    
Max Gust Speed -    
Visibility 5 miles    
Events Fog    
Averages and records for this station are not official NWS values.
T = Trace of Precipitation, MM = Missing Value Source: NWS Daily Summary

Daily Weather History Graph

Daily Weather History Graph

Search for Another Location

Airport or City:

Trip Planner

Search our weather history database for the weather conditions in past years. The results will help you decide how hot, cold, wet, or windy it might be!

Date:

Astronomy

Aug. 26, 2014 Rise Set
Actual Time 6:20 AM CDT 7:35 PM CDT
Civil Twilight 5:52 AM CDT 8:02 PM CDT
Nautical Twilight 5:19 AM CDT 8:35 PM CDT
Astronomical Twilight 4:45 AM CDT 9:09 PM CDT
Moon 7:19 AM CDT (8/26) 7:58 PM CDT (8/26)
Length of Visible Light 14h 09m
Length of Day
13h 14m
New Moon, 1% of the Moon is Illuminated
Aug 26
New Moon
Sep 2
First Quarter
Sep 8
Full
Sep 15
Last Quarter
Sep 24
New

Hourly Weather History & Observations

Time (CDT) Temp. Heat Index Dew Point Humidity Pressure Visibility Wind Dir Wind Speed Gust Speed Precip Events Conditions
12:15 AM 74.8 °F - 72.1 °F 91% 30.06 in 7.0 mi NE 3.5 mph - N/A   Clear
12:35 AM 75.6 °F - 72.5 °F 90% 30.06 in 7.0 mi East 4.6 mph - N/A   Clear
12:55 AM 74.8 °F - 71.8 °F 90% 30.05 in 7.0 mi Calm Calm - N/A   Clear
1:15 AM 73.8 °F - 71.1 °F 91% 30.05 in 7.0 mi Calm Calm - N/A   Clear
1:35 AM 73.6 °F - 71.1 °F 92% 30.05 in 7.0 mi ENE 3.5 mph - N/A   Clear
1:55 AM 72.9 °F - 70.7 °F 93% 30.05 in 5.0 mi Calm Calm - N/A   Clear
2:15 AM 71.8 °F - 69.4 °F 92% 30.05 in 5.0 mi Calm Calm - N/A   Clear
2:35 AM 71.1 °F - 68.9 °F 93% 30.05 in 4.0 mi Calm Calm - N/A   Clear
2:55 AM 70.7 °F - 68.5 °F 93% 30.04 in 0.5 mi Calm Calm - N/A Fog Fog
3:15 AM 70.7 °F - 68.4 °F 92% 30.03 in 2.0 mi Calm Calm - N/A   Clear
3:35 AM 70.5 °F - 68.4 °F 93% 30.04 in 0.8 mi Calm Calm - N/A   Mostly Cloudy
3:55 AM 70.7 °F - 68.7 °F 93% 30.04 in 2.5 mi Calm Calm - N/A   Clear
4:15 AM 69.8 °F - 68.0 °F 94% 30.04 in 1.5 mi Calm Calm - N/A   Scattered Clouds
4:35 AM 69.8 °F - 68.0 °F 94% 30.04 in 0.2 mi Calm Calm - N/A Fog Fog
4:55 AM 69.4 °F - 67.5 °F 93% 30.05 in 0.5 mi Calm Calm - N/A Fog Fog
5:15 AM 69.3 °F - 67.3 °F 93% 30.05 in 0.5 mi Calm Calm - N/A Fog Fog
5:35 AM 69.6 °F - 67.6 °F 93% 30.06 in 0.5 mi Calm Calm - N/A Fog Fog
5:55 AM 69.3 °F - 67.3 °F 93% 30.08 in 4.0 mi Calm Calm - N/A   Scattered Clouds
6:15 AM 68.9 °F - 67.1 °F 94% 30.09 in 0.8 mi Calm Calm - N/A   Mist
6:35 AM 69.1 °F - 67.1 °F 93% 30.10 in 0.5 mi Calm Calm - N/A Fog Fog
6:55 AM 70.7 °F - 68.9 °F 94% 30.10 in 0.5 mi SE 3.5 mph - N/A Fog Fog
7:15 AM 78.6 °F - 76.1 °F 92% 30.11 in 0.5 mi Calm Calm - N/A Fog Fog
7:35 AM 88.2 °F 96.9 °F 74.3 °F 63% 30.12 in 2.0 mi Calm Calm - N/A   Haze
7:55 AM 82.6 °F 88.8 °F 73.8 °F 75% 30.13 in 3.0 mi Calm Calm - N/A   Haze
8:15 AM 88.2 °F 98.5 °F 75.6 °F 66% 30.13 in 3.0 mi Calm Calm - N/A   Haze
8:35 AM 97.0 °F 110.1 °F 75.7 °F 50% 30.13 in 4.0 mi Calm Calm - N/A   Haze
8:55 AM 86.7 °F 95.0 °F 73.9 °F 66% 30.13 in 7.0 mi Calm Calm - N/A   Clear
9:15 AM 96.8 °F 109.6 °F 75.2 °F 50% 30.12 in 7.0 mi Calm Calm - N/A   Clear
9:55 AM 99.9 °F 112.3 °F 74.1 °F 44% 30.12 in 10.0 mi Calm Calm - N/A   Clear
10:15 AM 100.8 °F 113.6 °F 74.7 °F 43% 30.12 in 10.0 mi Calm Calm - N/A   Clear
10:35 AM 100.4 °F 114.5 °F 75.6 °F 45% 30.12 in 10.0 mi SW 3.5 mph - N/A   Clear
10:55 AM 102.6 °F 115.3 °F 74.3 °F 40% 30.12 in 10.0 mi Calm Calm - N/A   Clear
11:15 AM 103.5 °F 117.5 °F 74.5 °F 40% 30.12 in 10.0 mi Calm Calm - N/A   Clear
11:35 AM 98.1 °F 108.7 °F 73.6 °F 45% 30.12 in 10.0 mi West 4.6 mph - N/A   Clear
11:55 AM 96.8 °F 107.3 °F 73.4 °F 47% 30.11 in 10.0 mi Calm Calm - N/A   Clear
12:15 PM 101.7 °F 114.9 °F 74.3 °F 42% 30.10 in 10.0 mi Calm Calm - N/A   Clear
12:33 PM 98.6 °F 107.7 °F 71.6 °F 42% 30.10 in - WSW 4.6 mph - N/A   Unknown
12:35 PM 97.9 °F 107.6 °F 72.7 °F 44% 30.10 in - WSW 4.6 mph - N/A   Unknown
12:55 PM 100.9 °F 111.4 °F 72.3 °F 40% 30.10 in - WSW 3.5 mph - N/A   Unknown
1:15 PM 98.6 °F 107.7 °F 71.6 °F 42% 30.10 in - North - - N/A   Unknown
1:35 PM - - - N/A% 30.10 in - North - - N/A   Unknown